星链-34802 (STARLINK-34802)

导读

STARLINK-34802是美国于2025年7月31日发射的卫星,隶属于太空探索技术公司SpaceX星链(Starlink)互联网星座项目,旨在搭建覆盖全球的低轨卫星互联网通信网络。作为星链计划扩容星座的一员,它将进一步提升星座全球服务能力,为全球用户提供高速低延迟的宽带服务。

基本信息
目录编号:
65067
目录名称:
STARLINK-34802
国际标识:
2025-165M
轨道中心:
EARTH
卫星名称:
星链-34802
卫星全名:
星链-34802 (STARLINK-34802)
卫星状态:
在轨 (已飞行409 天)
发射日期:
2025-07-31 UTC
国别 :
美国 (US)
星等 :
--
该卫星已列入 空间交会检测服务 Space Conjunction Data Service (SCDS) ,当前飞行风险评估等级: 无高风险
轨道信息
数据来源 国际轨道数据
星历时间: 2026-09-12T14:00:02+0800
19小时前
查看轨道信息
半长轴: 6881.325km
偏心率: 0.0001536
轨道倾角: 97.284°
近地点辐角 86.573°
升交点赤经 326.640°
平近点角 309.168°
近地点: 502.131km
远地点: 504.245km
周期: 94.682分钟
每日圈数: 15.208793
详细信息
固有亮度:
5
最大亮度:
2.5
卫星平台:
Starlink V1.0
覆盖范围:
全球
运营商:
太空探索技术公司
运营商所在国:
美国
制造商(研发单位):
太空探索技术公司
制造商所在国:
美国
使用方式:
暂无
卫星简介
Starlink 计划是 SpaceX 推出的全球卫星互联网项目,通过发射低轨道卫星,为全球尤其是偏远地区提供高速、低延迟的互联网服务。自 2019 年起,Starlink 已部署数千颗卫星,旨在缩小全球数字鸿沟,推动互联网普及。该项目还为军事、航空等行业提供通信支持,带来广泛经济效益。
2D轨道图
3D轨道图
轨道高度分析图
轨道倾角分析图
轨道综合分析图
查看轨道综合分析图
交会数据列表
事件ID 空间交会对象 最接近时刻(TCA) 交会距离 交会风险概率(CRP) 交会风险指数(CRI) 操作
CDM_260909-063104-308206-506725
2026-09-09T
06:31:16+0000
1.958 km
极远距离
2.134419E-6 低风险 0.42
CDM_260914-150306-304006-506721
2026-09-14T
15:03:48+0000
2.263 km
极远距离
2.030396E-6 低风险 0.41
CDM_260914-132906-304006-506721
2026-09-14T
13:29:46+0000
2.364 km
极远距离
1.856102E-6 低风险 0.4
CDM_260914-125106-349906-506721
2026-09-14T
12:51:57+0000
1.974 km
极远距离
1.670882E-6 低风险 0.39
与全量物体交会距离演化趋势
与全量物体交会风险概率演化趋势